| time (UTC) | temp F | wind direction | speed knots | gust knots | rain 1hr in | rain 24hr in | rain mn in | humidity % | barometer mb |
| 20260503034507 | 75 | 287 | 0.0 | 3.5 | 0.00 | 0.00 | 0.00 | 91 | 1014.6 |
| 20260503033006 | 75 | 261 | 0.9 | 5.2 | 0.00 | 0.00 | 0.00 | 90 | 1014.1 |
| 20260503031504 | 75 | 244 | 0.0 | 2.6 | 0.00 | 0.00 | 0.00 | 89 | 1013.8 |
| 20260503030004 | 75 | 118 | 0.0 | 0.9 | 0.00 | 0.00 | 0.00 | 88 | 1013.7 |
| 20260503024502 | 75 | 170 | 0.0 | 0.9 | 0.00 | 0.00 | 0.00 | 89 | 1014.1 |
| 20260503023101 | 75 | 170 | 0.0 | 1.7 | 0.00 | 0.00 | 0.00 | 88 | 1014.0 |
| 20260503021559 | 75 | 168 | 0.0 | 1.7 | 0.00 | 0.00 | 0.00 | 89 | 1013.6 |
| 20260503021502 | 75 | 168 | 0.0 | 1.7 | 0.00 | 0.00 | 0.00 | 89 | 1013.5 |
| 20260503020100 | 74 | 263 | 0.0 | 1.7 | 0.00 | 0.00 | 0.00 | 88 | 1013.9 |
| 20260503014615 | 74 | 117 | 0.0 | 1.7 | 0.00 | 0.00 | 0.00 | 88 | 1013.5 |
| 20260503013058 | 74 | 95 | 0.0 | 0.0 | 0.00 | 0.00 | 0.00 | 88 | 1013.6 |
| 20260503011556 | 74 | 90 | 0.0 | 0.0 | 0.00 | 0.00 | 0.00 | 88 | 1013.7 |
| 20260503010056 | 74 | 90 | 0.0 | 0.9 | 0.00 | 0.00 | 0.00 | 88 | 1013.6 |
| 20260503004556 | 74 | 53 | 0.0 | 1.7 | 0.00 | 0.00 | 0.00 | 88 | 1013.7 |
| 20260503003103 | 74 | 95 | 0.0 | 0.0 | 0.00 | 0.00 | 0.00 | 87 | 1013.4 |
| 20260503001608 | 75 | 95 | 2.6 | 7.0 | 0.00 | 0.00 | 0.00 | 88 | 1013.0 |
| 20260503000051 | 78 | 76 | 4.3 | 11.3 | 0.00 | 0.00 | 0.00 | 82 | 1013.1 |
| 20260502234550 | 83 | 352 | 1.7 | 7.8 | 0.00 | 0.00 | 0.00 | 81 | 1012.6 |
| 20260502233046 | 84 | 283 | 1.7 | 7.8 | 0.00 | 0.00 | 0.00 | 80 | 1012.4 |
| 20260502231543 | 84 | 305 | 1.7 | 6.1 | 0.00 | 0.00 | 0.00 | 79 | 1012.2 |
| 20260502230042 | 85 | 342 | 4.3 | 9.6 | 0.00 | 0.00 | 0.00 | 77 | 1012.2 |
| 20260502224542 | 85 | 2 | 2.6 | 10.4 | 0.00 | 0.00 | 0.00 | 75 | 1011.8 |
| 20260502223042 | 87 | 307 | 0.9 | 7.0 | 0.00 | 0.00 | 0.00 | 72 | 1011.7 |
| 20260502221544 | 87 | 328 | 2.6 | 7.0 | 0.00 | 0.00 | 0.00 | 70 | 1011.4 |
| 20260502220040 | 87 | 324 | 0.9 | 11.3 | 0.00 | 0.00 | 0.00 | 68 | 1011.4 |
| 20260502214547 | 89 | 270 | 2.6 | 14.8 | 0.00 | 0.00 | 0.00 | 65 | 1011.1 |
| 20260502213040 | 90 | 336 | 4.3 | 9.6 | 0.00 | 0.00 | 0.00 | 63 | 1011.1 |
| 20260502211538 | 91 | 288 | 2.6 | 9.6 | 0.00 | 0.00 | 0.00 | 60 | 1011.0 |
| 20260502210038 | 92 | 11 | 6.1 | 13.0 | 0.00 | 0.00 | 0.00 | 58 | 1010.9 |
| 20260502204536 | 92 | 272 | 3.5 | 8.7 | 0.00 | 0.00 | 0.00 | 56 | 1010.6 |
| 20260502203037 | 92 | 285 | 2.6 | 13.0 | 0.00 | 0.00 | 0.00 | 59 | 1010.6 |
| 20260502201533 | 92 | 338 | 5.2 | 12.2 | 0.00 | 0.00 | 0.00 | 56 | 1010.7 |
| 20260502200033 | 92 | 305 | 3.5 | 8.7 | 0.00 | 0.00 | 0.00 | 55 | 1010.7 |
| 20260502194531 | 92 | 359 | 2.6 | 13.0 | 0.00 | 0.00 | 0.00 | 54 | 1010.8 |
| 20260502193032 | 92 | 291 | 7.0 | 13.9 | 0.00 | 0.00 | 0.00 | 55 | 1011.0 |
| 20260502191529 | 93 | 282 | 4.3 | 13.9 | 0.00 | 0.00 | 0.00 | 54 | 1011.2 |
| 20260502190026 | 93 | 315 | 4.3 | 11.3 | 0.00 | 0.00 | 0.00 | 52 | 1011.3 |
| 20260502184532 | 93 | 334 | 4.3 | 13.0 | 0.00 | 0.00 | 0.00 | 53 | 1011.4 |
| 20260502183023 | 92 | 353 | 3.5 | 11.3 | 0.00 | 0.00 | 0.00 | 57 | 1011.6 |
| 20260502181528 | 92 | 298 | 5.2 | 11.3 | 0.00 | 0.00 | 0.00 | 57 | 1011.7 |
| 20260502163012 | 90 | 325 | 2.6 | 11.3 | 0.00 | 0.00 | 0.00 | 71 | 1012.0 |
| 20260502161510 | 91 | 261 | 7.0 | 13.9 | 0.00 | 0.00 | 0.00 | 67 | 1012.1 |
| 20260502151622 | 88 | 338 | 4.3 | 10.4 | 0.00 | 0.00 | 0.00 | 74 | 1012.1 |
| 20260502150107 | 87 | 287 | 6.1 | 13.0 | 0.00 | 0.00 | 0.00 | 75 | 1012.0 |
| 20260502123023 | 75 | 271 | 0.0 | 4.3 | 0.00 | 0.00 | 0.00 | 90 | 1011.4 |
| 20260502121519 | 74 | 257 | 0.9 | 4.3 | 0.00 | 0.00 | 0.00 | 91 | 1011.3 |
| 20260502114515 | 72 | 261 | 0.0 | 0.9 | 0.00 | 0.00 | 0.00 | 92 | 1011.3 |
| 20260502113014 | 72 | 253 | 0.0 | 0.0 | 0.00 | 0.00 | 0.00 | 92 | 1011.3 |
| 20260502111515 | 72 | 253 | 0.0 | 4.3 | 0.00 | 0.00 | 0.00 | 92 | 1011.3 |
| 20260502110013 | 71 | 249 | 0.9 | 4.3 | 0.00 | 0.00 | 0.00 | 91 | 1011.2 |
| 20260502104512 | 72 | 238 | 0.0 | 2.6 | 0.00 | 0.00 | 0.00 | 91 | 1011.2 |
| 20260502103013 | 72 | 234 | 0.0 | 2.6 | 0.00 | 0.00 | 0.00 | 91 | 1011.2 |
| 20260502101511 | 72 | 193 | 0.0 | 2.6 | 0.00 | 0.00 | 0.00 | 91 | 1011.2 |
| 20260502091507 | 71 | 190 | 0.0 | 2.6 | 0.00 | 0.00 | 0.00 | 92 | 1011.4 |
| 20260502070100 | 70 | 151 | 0.0 | 0.0 | 0.00 | 0.00 | 0.00 | 91 | 1012.0 |
| 20260502064602 | 70 | 149 | 0.9 | 2.6 | 0.00 | 0.00 | 0.00 | 91 | 1011.8 |
| 20260502063057 | 70 | 172 | 0.0 | 2.6 | 0.00 | 0.00 | 0.00 | 90 | 1012.0 |
| 20260502061555 | 71 | 230 | 1.7 | 7.0 | 0.00 | 0.00 | 0.00 | 90 | 1012.0 |
| 20260502060056 | 71 | 240 | 0.0 | 0.9 | 0.00 | 0.00 | 0.00 | 90 | 1011.8 |
| 20260502054555 | 72 | 240 | 0.0 | 1.7 | 0.00 | 0.00 | 0.00 | 90 | 1011.7 |
| 20260502053108 | 72 | 250 | 0.0 | 0.9 | 0.00 | 0.00 | 0.00 | 90 | 1011.7 |
| 20260502051550 | 72 | 250 | 0.0 | 1.7 | 0.00 | 0.00 | 0.00 | 89 | 1011.9 |
| 20260502050047 | 72 | 258 | 0.0 | 0.9 | 0.00 | 0.00 | 0.00 | 89 | 1011.8 |
| 20260502044545 | 73 | 258 | 0.0 | 0.9 | 0.00 | 0.00 | 0.00 | 88 | 1011.8 |
| 20260502043044 | 73 | 258 | 0.0 | 0.9 | 0.00 | 0.00 | 0.00 | 87 | 1011.8 |
| 20260502041544 | 73 | 258 | 0.0 | 0.0 | 0.00 | 0.00 | 0.00 | 87 | 1011.9 |
| 20260502040044 | 73 | 268 | 0.0 | 0.9 | 0.00 | 0.00 | 0.00 | 86 | 1012.1 |